STARLINK-11330, 62011

Orbit data source: Space-Track

STARLINK-11330, 62011 is a payload satellite owned by SpaceX/Seattle (US) in LEO that was launched on Mon, 18 Nov 2024 UTC via an FALCON 9 launch vehicle from the Air Force Western Test Range (AFWTR). Payload-class satellites include a variety of spacecraft equipped with specific instruments for various scientific and technological missions. These include communications satellites like Starlink; space stations such as the ISS; scientific satellites like the Hubble; Earth observation satellites from companies like Planet Labs, Umbra, and HawkEye 360; GPS; miniature CubeSats for education and research; and military/defense satellites.

Loading next visibility...
Identifier
62011, 2024-213D
Orbit
LEO
Last TLE update
1 day ago
Origin
Manufacturer
SpaceX/Seattle
Mission
Operational Commercial Communications
Bus & Motor
STARLINK V2M, Unknown motor
Mass
730 kg wet, ~700 kg dry
Launch date (UTC)
2024-11-18 (6 months ago)
Launch vehicle
FALCON 9
Launch site
Air Force Western Test Range (AFWTR)
Object type
Payload
Rocket body
Debris
Shape & HBR
Box + 2 Pan, 29 m
Radar Cross Section
36.964 m², Large (>1 m²)

Expand to show TLE details & history

TLE from 1 day ago
0 STARLINK-11330
1 62011U 24213D   25128.21400076  .00000408  00000-0  82283-5 0  9990
2 62011  53.1581 107.3766 0001551  88.9449 271.1746 15.69709084 26936
Epoch: 2025-05-08T05:08Z
Definitive object data (Epoch: 2025-05-08T05:08:09.665Z)
Latitude
-0.00008°
Longitude
164.04856°
Altitude
360.623 km
Speed
7.694 km/s
True Right ascension
07h 09m 30s
True Declination
0° 00' 00"
Sunlit
Object was in daylight at TLE epoch
Visualization TLE readout
Latitude
53.14696°
Longitude
-105.08446°
Altitude
365.196 km
Speed
7.697 km/s
Apparent Right ascension
07h 22m 37s
Apparent Declination
23° 58' 10"
Sunlit
Object is in daylight
Visualization observer readout
Local Sidereal Time
15:39:38
Azimuth
310.348° NW
Elevation
-7.689°
Doppler factor
1
Orbital elements
Apogee altitude
361.035 km
Perigee altitude
358.945 km
Semi-major axis
6,738.127 km
Eccentricity
0.0001551
Inclination
53.1581°
RAAN
107.3766°
Arg. of periapsis
88.9449°
True anomaly
271.15683°
Mean anomaly
271.1746°
Eccentric anomaly
271.16572°
Mean motion
3.92405 °/min
BSTAR
0.0000082283
Orbital period
91.74 mins
Loading maneuver chart data...
Loading SW <> Apogee altitude chart data...
Loading historical data...
Loading historical data...
Loading historical data...
Loading historical data...
Loading historical data...
Loading historical data...
Loading historical data...

STARLINK-11330 Visibility forecast

Observer location: undefined°, undefined°

Span
Click to sort rows by Start time (UTC) header in descending order
Start Az.
Max El. time (UTC)
Max El. Az.
Max El.
End time (UTC)
End Az.
5 mins2025-05-09 07:35:38.042Z323.506° NNW2025-05-09 07:37:38.042Z8.478° NNE33.56°2025-05-09 07:40:38.042Z109.855° ESE
|